Weather in Baní

Dominican Republic     18°16′46″N   70°20′07″W
temp.,
°C
wind,
m/s
gust,
m/s
humid.,
%
clouds,
%
prec.,
mm/h
press.,
hPa
HPBL,
m
17 may, mon
mon1723:00+25ene23826 0.0 1017275
02:00+24ne238513 0.1 1015274
05:00+23ne238612 0.4 1015250
08:00+26e347231 1.0 1016754
11:00+29ese65597 0.3 10171315
14:00+29se5454100 0.3 10151122
17:00+28se44659 0.0 1014974
20:00+25e23773 0.0 1015264
18 may, tue
tue1823:00+24ne23824 0.0 1017294
02:00+23ne238495 0.0 1016280
05:00+23ne238499 0.1 1015126
08:00+26ene347528 0.4 1017525
11:00+29ese556078 0.1 10171229
14:00+30ese655277 0.1 10151142
17:00+28ese555452 0.0 1014936
20:00+25e237516 0.0 1015270
19 may, wed
wed1923:00+24ne248123 0.0 1016296
02:00+24ene237953 0.1 1015289
05:00+24e128047 0.1 1015260
08:00+26e447317 0.4 1016780
11:00+29ese5459100 0.1 10161224
14:00+29se545986 0.1 10141047
17:00+28se55675 0.0 1013833
20:00+25ese22845 0.2 101485
20 may, thu
thu2023:00+24ne2388100 1.6 1016115
02:00+23ne468693 2.6 1015199
05:00+23ne468520 0.4 1015242
08:00+25ne477253 0.7 1016561
11:00+29e666053 0.1 10161064
14:00+29ese566187 0.4 10151094
17:00+27ese557091 0.7 1013821
20:00+24ene46886 3.9 1015276
21 may, fri
fri2123:00+23ne588676 3.8 1017421
02:00+23ne488614 5.0 1016285
05:00+23ne61084100 0.0 1015414
08:00+25ne6878100 0.0 1016614
11:00+28e666554 0.0 10161039
14:00+29ese6663100 0.2 10151095
17:00+28ese556860 0.1 1014810
20:00+24ene348879 2.6 1015158